QPF
0.05 0.05 0.05 0.05 0.06 0.06 0.05 0.04 0.04 0.03 0.03 0.02 0.02 0.02 0.03 0.03 0.03 0.03 0.03 0.02 0.01 0.01 0.01 0.01 0.03 0.03 0.04 0.06 0.06 0.07 0.05 0.05 0.07 0.06 0.04 0.02 0.02 0.02
0.05 0.06 0.06 0.06 0.06 0.07 0.06 0.05 0.04 0.04 0.03 0.02 0.02 0.02 0.03 0.03 0.04 0.04 0.03 0.03 0.02 0.01 0.01 0.01 0.02 0.03 0.04 0.06 0.07 0.07 0.06 0.04 0.04 0.05 0.03 0.02 0.02 0.02
0.04 0.05 0.05 0.07 0.07 0.06 0.06 0.05 0.05 0.04 0.04 0.02 0.02 0.02 0.03 0.04 0.04 0.04 0.04 0.04 0.04 0.03 0.02 0.02 0.02 0.02 0.03 0.04 0.06 0.06 0.07 0.05 0.03 0.03 0.02 0.01 0.02 0.02
0.03 0.05 0.05 0.06 0.07 0.07 0.05 0.05 0.04 0.04 0.03 0.02 0.02 0.02 0.02 0.03 0.04 0.05 0.04 0.04 0.04 0.04 0.02 0.03 0.03 0.03 0.03 0.04 0.05 0.05 0.06 0.06 0.05 0.04 0.03 0.03 0.02 0.02
0.04 0.04 0.06 0.06 0.06 0.05 0.05 0.04 0.04 0.03 0.03 0.02 0.02 0.02 0.02 0.02 0.05 0.06 0.04 0.04 0.04 0.03 0.03 0.03 0.03 0.03 0.04 0.04 0.05 0.04 0.05 0.05 0.05 0.03 0.03 0.02 0.02 0.02
0.04 0.03 0.03 0.03 0.03 0.03 0.03 0.03 0.04 0.04 0.03 0.03 0.02 0.02 0.02 0.03 0.05 0.06 0.06 0.06 0.05 0.04 0.04 0.03 0.03 0.03 0.02 0.02 0.02 0.02 0.03 0.03 0.04 0.03 0.03 0.02 0.01 0.01
0.03 0.03 0.03 0.02 0.02 0.02 0.02 0.02 0.03 0.04 0.03 0.03 0.02 0.02 0.02 0.03 0.06 0.06 0.05 0.06 0.06 0.04 0.04 0.04 0.03 0.03 0.03 0.02 0.02 0.02 0.02 0.02 0.02 0.03 0.03 0.03 0.02 0.02
0.03 0.03 0.03 0.02 0.02 0.02 0.02 0.02 0.03 0.03 0.03 0.03 0.02 0.02 0.02 0.04 0.08 0.07 0.06 0.06 0.06 0.05 0.05 0.04 0.04 0.04 0.04 0.03 0.02 0.02 0.01 0.01 0.02 0.02 0.02 0.02 0.02 0.02
0.05 0.05 0.04 0.03 0.02 0.02 0.02 0.04 0.03 0.02 0.02 0.03 0.03 0.02 0.04 0.07 0.10 0.08 0.06 0.06 0.05 0.05 0.05 0.05 0.04 0.04 0.03 0.03 0.02 0.02 0.01 0.01 0.02 0.02 0.03 0.03 0.02 0.03
0.06 0.06 0.04 0.03 0.03 0.02 0.03 0.04 0.03 0.03 0.02 0.03 0.03 0.03 0.04 0.08 0.09 0.07 0.06 0.06 0.05 0.05 0.05 0.05 0.05 0.05 0.04 0.04 0.03 0.02 0.01 0.01 0.01 0.01 0.02 0.02 0.02 0.03
0.06 0.04 0.03 0.02 0.03 0.04 0.03 0.03 0.03 0.03 0.02 0.02 0.02 0.02 0.03 0.06 0.07 0.06 0.05 0.05 0.05 0.05 0.05 0.05 0.05 0.06 0.06 0.06 0.04 0.02 0.01 0.01 0.01 0.01 0.01 0.02 0.02 0.02
0.05 0.04 0.04 0.03 0.03 0.04 0.04 0.04 0.03 0.02 0.03 0.03 0.02 0.02 0.02 0.04 0.05 0.04 0.04 0.04 0.04 0.05 0.05 0.05 0.04 0.05 0.06 0.05 0.04 0.03 0.02 0.02 0.02 0.01 0.01 0.02 0.02 0.02
0.05 0.05 0.04 0.04 0.03 0.03 0.05 0.05 0.05 0.04 0.04 0.04 0.04 0.04 0.04 0.03 0.04 0.04 0.04 0.04 0.04 0.04 0.04 0.05 0.05 0.05 0.05 0.05 0.05 0.04 0.03 0.03 0.03 0.02 0.02 0.02 0.02 0.02
0.06 0.06 0.06 0.06 0.06 0.06 0.06 0.08 0.07 0.07 0.06 0.06 0.05 0.05 0.04 0.04 0.05 0.05 0.05 0.05 0.05 0.05 0.05 0.06 0.05 0.05 0.05 0.05 0.05 0.05 0.05 0.05 0.04 0.03 0.03 0.03 0.03 0.02
0.05 0.05 0.05 0.05 0.07 0.08 0.10 0.11 0.10 0.09 0.08 0.06 0.05 0.05 0.04 0.04 0.05 0.05 0.05 0.05 0.05 0.05 0.04 0.05 0.05 0.06 0.07 0.06 0.06 0.05 0.05 0.06 0.05 0.04 0.04 0.03 0.03 0.03
0.05 0.04 0.04 0.04 0.05 0.06 0.08 0.09 0.09 0.08 0.06 0.05 0.05 0.05 0.05 0.06 0.05 0.04 0.04 0.04 0.04 0.05 0.05 0.06 0.06 0.06 0.07 0.08 0.07 0.05 0.05 0.06 0.06 0.05 0.04 0.04 0.03 0.03
0.02 0.03 0.03 0.03 0.04 0.06 0.07 0.09 0.09 0.08 0.07 0.06 0.06 0.05 0.05 0.05 0.05 0.04 0.04 0.04 0.05 0.05 0.05 0.06 0.07 0.07 0.08 0.07 0.06 0.06 0.05 0.06 0.06 0.06 0.05 0.04 0.04 0.03
0.03 0.03 0.04 0.05 0.05 0.06 0.06 0.07 0.07 0.07 0.06 0.06 0.06 0.06 0.05 0.04 0.04 0.05 0.05 0.05 0.06 0.06 0.06 0.07 0.08 0.09 0.08 0.08 0.07 0.06 0.06 0.06 0.06 0.06 0.05 0.04 0.04 0.02
0.04 0.04 0.04 0.05 0.05 0.05 0.05 0.06 0.05 0.04 0.05 0.05 0.06 0.06 0.05 0.04 0.04 0.05 0.06 0.07 0.07 0.08 0.08 0.08 0.09 0.08 0.07 0.06 0.06 0.06 0.06 0.06 0.06 0.06 0.05 0.04 0.02 0.02
0.03 0.03 0.03 0.04 0.05 0.04 0.04 0.05 0.05 0.05 0.05 0.05 0.05 0.05 0.05 0.05 0.05 0.05 0.06 0.06 0.07 0.07 0.08 0.09 0.09 0.08 0.06 0.05 0.05 0.06 0.06 0.07 0.06 0.05 0.04 0.03 0.02 0.02
0.03 0.03 0.03 0.04 0.04 0.04 0.04 0.04 0.05 0.05 0.05 0.05 0.04 0.04 0.03 0.03 0.03 0.04 0.04 0.04 0.04 0.04 0.06 0.07 0.09 0.09 0.07 0.06 0.06 0.05 0.06 0.06 0.06 0.04 0.03 0.03 0.02 0.02
0.02 0.03 0.03 0.03 0.04 0.03 0.04 0.05 0.05 0.04 0.03 0.04 0.03 0.03 0.03 0.03 0.03 0.03 0.03 0.03 0.03 0.04 0.04 0.05 0.05 0.07 0.07 0.07 0.05 0.05 0.06 0.06 0.05 0.05 0.04 0.03 0.02 0.02
0.05 0.04 0.05 0.05 0.05 0.04 0.04 0.05 0.04 0.04 0.03 0.02 0.02 0.03 0.03 0.03 0.03 0.03 0.03 0.03 0.03 0.03 0.03 0.05 0.05 0.05 0.06 0.06 0.06 0.06 0.06 0.06 0.06 0.05 0.05 0.04 0.03 0.02
MSLP
1014.89 1015.14 1015.44 1015.79 1016.20 1016.66 1017.15 1017.64 1018.12 1018.56 1018.96 1019.32 1019.65 1019.96 1020.27 1020.61 1020.99 1021.41 1021.87 1022.36 1022.85 1023.31 1023.72 1024.07 1024.34 1024.54 1024.68 1024.76 1024.82 1024.86 1024.91 1024.96 1025.02 1025.07 1025.11 1025.13 1025.11 1025.05
1014.25 1014.56 1014.90 1015.30 1015.75 1016.26 1016.80 1017.35 1017.90 1018.42 1018.91 1019.35 1019.76 1020.15 1020.52 1020.91 1021.32 1021.76 1022.22 1022.70 1023.18 1023.63 1024.03 1024.37 1024.64 1024.84 1024.98 1025.07 1025.14 1025.19 1025.24 1025.29 1025.35 1025.39 1025.41 1025.39 1025.34 1025.24
1013.67 1014.03 1014.42 1014.85 1015.33 1015.86 1016.43 1017.02 1017.62 1018.20 1018.75 1019.27 1019.75 1020.21 1020.65 1021.09 1021.54 1022.00 1022.48 1022.96 1023.42 1023.86 1024.25 1024.59 1024.86 1025.07 1025.23 1025.35 1025.43 1025.50 1025.57 1025.63 1025.67 1025.70 1025.69 1025.64 1025.54 1025.38
1013.15 1013.55 1013.98 1014.43 1014.93 1015.47 1016.05 1016.65 1017.26 1017.88 1018.47 1019.05 1019.59 1020.12 1020.62 1021.12 1021.61 1022.10 1022.58 1023.07 1023.53 1023.96 1024.35 1024.68 1024.96 1025.19 1025.37 1025.52 1025.64 1025.74 1025.83 1025.90 1025.95 1025.96 1025.93 1025.84 1025.69 1025.47
1012.68 1013.12 1013.57 1014.03 1014.53 1015.06 1015.63 1016.22 1016.84 1017.46 1018.08 1018.70 1019.29 1019.87 1020.42 1020.97 1021.49 1022.01 1022.51 1022.99 1023.45 1023.88 1024.26 1024.60 1024.89 1025.14 1025.35 1025.53 1025.69 1025.83 1025.95 1026.04 1026.11 1026.12 1026.08 1025.96 1025.77 1025.51
1012.24 1012.70 1013.16 1013.63 1014.12 1014.63 1015.17 1015.74 1016.34 1016.96 1017.59 1018.22 1018.85 1019.46 1020.06 1020.64 1021.19 1021.73 1022.24 1022.72 1023.17 1023.59 1023.97 1024.31 1024.61 1024.88 1025.12 1025.34 1025.53 1025.72 1025.88 1026.01 1026.10 1026.13 1026.09 1025.97 1025.76 1025.48
1011.79 1012.26 1012.73 1013.19 1013.67 1014.16 1014.67 1015.22 1015.80 1016.40 1017.03 1017.67 1018.31 1018.94 1019.56 1020.16 1020.73 1021.27 1021.78 1022.26 1022.70 1023.11 1023.48 1023.82 1024.13 1024.41 1024.67 1024.93 1025.16 1025.39 1025.59 1025.77 1025.89 1025.96 1025.94 1025.84 1025.64 1025.35
1011.32 1011.80 1012.27 1012.73 1013.19 1013.67 1014.16 1014.68 1015.24 1015.83 1016.44 1017.08 1017.72 1018.36 1018.99 1019.59 1020.16 1020.70 1021.20 1021.67 1022.09 1022.48 1022.84 1023.17 1023.48 1023.77 1024.05 1024.33 1024.60 1024.86 1025.11 1025.33 1025.50 1025.60 1025.62 1025.54 1025.37 1025.10
1010.84 1011.32 1011.79 1012.26 1012.71 1013.18 1013.66 1014.17 1014.71 1015.29 1015.89 1016.52 1017.15 1017.79 1018.41 1019.00 1019.56 1020.09 1020.57 1021.01 1021.41 1021.78 1022.12 1022.44 1022.74 1023.03 1023.32 1023.61 1023.91 1024.20 1024.47 1024.72 1024.92 1025.07 1025.12 1025.08 1024.94 1024.70
1010.37 1010.86 1011.34 1011.81 1012.28 1012.75 1013.23 1013.74 1014.27 1014.84 1015.43 1016.05 1016.67 1017.29 1017.90 1018.47 1019.01 1019.51 1019.97 1020.39 1020.76 1021.11 1021.42 1021.72 1022.01 1022.29 1022.57 1022.86 1023.16 1023.45 1023.74 1024.00 1024.23 1024.39 1024.48 1024.47 1024.36 1024.15
1009.97 1010.46 1010.95 1011.44 1011.92 1012.40 1012.90 1013.42 1013.96 1014.52 1015.11 1015.72 1016.33 1016.93 1017.51 1018.06 1018.58 1019.05 1019.48 1019.86 1020.21 1020.53 1020.82 1021.09 1021.36 1021.62 1021.88 1022.16 1022.43 1022.71 1022.99 1023.24 1023.46 1023.63 1023.72 1023.73 1023.64 1023.46
1009.66 1010.16 1010.67 1011.16 1011.66 1012.16 1012.68 1013.21 1013.76 1014.33 1014.92 1015.52 1016.12 1016.70 1017.26 1017.79 1018.27 1018.71 1019.11 1019.47 1019.79 1020.08 1020.35 1020.60 1020.84 1021.07 1021.31 1021.54 1021.78 1022.03 1022.27 1022.49 1022.68 1022.82 1022.91 1022.91 1022.83 1022.66
1009.47 1009.97 1010.48 1010.99 1011.50 1012.01 1012.54 1013.09 1013.65 1014.24 1014.83 1015.42 1016.01 1016.58 1017.12 1017.62 1018.08 1018.49 1018.87 1019.20 1019.50 1019.77 1020.01 1020.24 1020.45 1020.65 1020.84 1021.04 1021.23 1021.42 1021.61 1021.78 1021.92 1022.03 1022.08 1022.06 1021.98 1021.82
1009.37 1009.86 1010.36 1010.86 1011.37 1011.89 1012.43 1012.99 1013.57 1014.16 1014.76 1015.36 1015.94 1016.50 1017.02 1017.51 1017.94 1018.33 1018.69 1019.00 1019.27 1019.52 1019.75 1019.95 1020.14 1020.31 1020.47 1020.62 1020.76 1020.90 1021.02 1021.13 1021.22 1021.27 1021.28 1021.24 1021.15 1020.99
1009.31 1009.78 1010.25 1010.73 1011.22 1011.74 1012.28 1012.84 1013.43 1014.03 1014.64 1015.24 1015.83 1016.38 1016.89 1017.36 1017.78 1018.15 1018.49 1018.78 1019.04 1019.28 1019.49 1019.68 1019.85 1020.00 1020.13 1020.25 1020.34 1020.43 1020.49 1020.55 1020.58 1020.59 1020.56 1020.50 1020.39 1020.24
1009.23 1009.65 1010.07 1010.51 1010.97 1011.47 1011.99 1012.56 1013.15 1013.76 1014.38 1015.00 1015.59 1016.14 1016.65 1017.11 1017.51 1017.87 1018.19 1018.47 1018.72 1018.95 1019.16 1019.35 1019.51 1019.66 1019.77 1019.87 1019.94 1019.99 1020.02 1020.03 1020.02 1019.98 1019.93 1019.85 1019.74 1019.59
1009.06 1009.41 1009.77 1010.15 1010.56 1011.02 1011.53 1012.09 1012.69 1013.31 1013.95 1014.58 1015.18 1015.74 1016.24 1016.69 1017.09 1017.43 1017.74 1018.01 1018.26 1018.49 1018.70 1018.90 1019.07 1019.23 1019.36 1019.45 1019.52 1019.56 1019.57 1019.56 1019.52 1019.47 1019.40 1019.31 1019.20 1019.08
1008.77 1009.04 1009.31 1009.62 1009.98 1010.40 1010.88 1011.43 1012.04 1012.68 1013.33 1013.98 1014.59 1015.16 1015.66 1016.11 1016.49 1016.82 1017.11 1017.38 1017.62 1017.86 1018.09 1018.31 1018.52 1018.70 1018.86 1018.98 1019.07 1019.12 1019.14 1019.13 1019.09 1019.03 1018.96 1018.88 1018.78 1018.67
1008.37 1008.53 1008.72 1008.95 1009.25 1009.63 1010.09 1010.64 1011.25 1011.91 1012.58 1013.25 1013.87 1014.45 1014.95 1015.38 1015.75 1016.07 1016.35 1016.60 1016.85 1017.10 1017.35 1017.61 1017.85 1018.09 1018.29 1018.46 1018.59 1018.68 1018.72 1018.73 1018.70 1018.65 1018.58 1018.50 1018.41 1018.31
1007.87 1007.94 1008.03 1008.19 1008.43 1008.77 1009.22 1009.77 1010.40 1011.08 1011.77 1012.45 1013.09 1013.67 1014.16 1014.58 1014.93 1015.23 1015.49 1015.74 1015.99 1016.26 1016.54 1016.83 1017.13 1017.42 1017.69 1017.92 1018.10 1018.23 1018.31 1018.34 1018.33 1018.29 1018.22 1018.14 1018.05 1017.96
1007.32 1007.29 1007.30 1007.39 1007.59 1007.91 1008.36 1008.92 1009.56 1010.26 1010.98 1011.67 1012.32 1012.89 1013.37 1013.77 1014.09 1014.37 1014.61 1014.85 1015.11 1015.39 1015.70 1016.04 1016.39 1016.74 1017.07 1017.37 1017.60 1017.78 1017.90 1017.95 1017.95 1017.91 1017.85 1017.76 1017.66 1017.57
1006.74 1006.62 1006.57 1006.61 1006.79 1007.10 1007.56 1008.13 1008.80 1009.52 1010.26 1010.97 1011.61 1012.17 1012.63 1013.00 1013.30 1013.55 1013.77 1014.00 1014.26 1014.56 1014.90 1015.28 1015.68 1016.09 1016.48 1016.82 1017.11 1017.33 1017.47 1017.54 1017.55 1017.51 1017.43 1017.33 1017.21 1017.10
1006.14 1005.96 1005.87 1005.89 1006.06 1006.38 1006.86 1007.46 1008.15 1008.90 1009.64 1010.35 1010.99 1011.53 1011.97 1012.31 1012.58 1012.80 1013.01 1013.22 1013.48 1013.79 1014.16 1014.57 1015.01 1015.47 1015.90 1016.29 1016.61 1016.86 1017.02 1017.10 1017.10 1017.05 1016.96 1016.83 1016.70 1016.56
Thickness
5657 5656 5656 5659 5658 5659 5660 5660 5657 5656 5659 5661 5662 5664 5663 5662 5661 5660 5661 5661 5660 5660 5660 5660 5660 5659 5659 5659 5658 5657 5657 5657 5658 5658 5658 5658 5658 5659
5651 5651 5650 5652 5653 5653 5653 5654 5654 5653 5653 5658 5658 5660 5657 5657 5655 5655 5655 5655 5655 5655 5655 5656 5656 5656 5655 5655 5654 5653 5653 5653 5653 5653 5654 5654 5654 5655
5646 5646 5645 5645 5646 5647 5648 5648 5648 5648 5647 5652 5653 5654 5651 5650 5649 5650 5650 5651 5652 5652 5652 5652 5652 5652 5652 5651 5650 5649 5649 5648 5649 5649 5649 5649 5649 5650
5642 5641 5641 5641 5640 5640 5641 5641 5642 5642 5641 5642 5645 5645 5644 5644 5643 5643 5646 5647 5648 5648 5648 5648 5648 5648 5648 5647 5647 5646 5644 5644 5644 5645 5645 5645 5645 5645
5638 5636 5636 5636 5635 5635 5634 5635 5635 5637 5636 5636 5638 5639 5638 5639 5637 5638 5640 5641 5643 5644 5644 5644 5644 5644 5644 5644 5643 5642 5641 5640 5640 5641 5641 5641 5640 5640
5634 5633 5632 5631 5630 5630 5629 5628 5628 5628 5629 5629 5631 5632 5632 5633 5631 5632 5634 5636 5638 5641 5641 5642 5641 5640 5640 5640 5640 5639 5637 5636 5636 5636 5636 5636 5636 5635
5630 5629 5628 5627 5625 5623 5624 5623 5622 5621 5622 5624 5624 5625 5626 5625 5625 5627 5628 5630 5633 5636 5637 5639 5639 5639 5639 5638 5637 5635 5634 5633 5632 5632 5632 5632 5632 5632
5625 5624 5624 5622 5621 5618 5616 5615 5614 5615 5617 5617 5618 5619 5619 5620 5619 5620 5621 5623 5625 5631 5631 5634 5636 5638 5638 5638 5637 5633 5631 5629 5628 5628 5628 5628 5628 5627
5620 5619 5620 5620 5616 5616 5613 5610 5609 5609 5609 5610 5613 5614 5614 5615 5613 5613 5614 5616 5619 5624 5624 5626 5630 5632 5635 5636 5633 5630 5628 5626 5625 5624 5624 5623 5623 5622
5615 5614 5613 5613 5612 5609 5608 5608 5608 5608 5606 5606 5608 5610 5609 5608 5607 5608 5609 5610 5614 5618 5619 5620 5624 5626 5630 5629 5627 5625 5624 5622 5621 5621 5620 5619 5618 5617
5611 5611 5610 5608 5605 5601 5602 5603 5603 5604 5603 5602 5601 5602 5601 5600 5601 5602 5604 5605 5609 5613 5615 5616 5619 5621 5622 5623 5622 5620 5619 5618 5617 5616 5615 5614 5613 5611
5608 5608 5605 5603 5599 5596 5597 5598 5598 5599 5599 5599 5597 5596 5597 5597 5596 5597 5600 5602 5605 5608 5611 5611 5613 5614 5614 5617 5617 5616 5613 5612 5612 5611 5610 5609 5607 5606
5606 5605 5604 5597 5594 5591 5590 5592 5593 5592 5594 5594 5595 5594 5594 5594 5595 5595 5597 5599 5601 5603 5607 5606 5607 5609 5609 5610 5611 5611 5611 5610 5608 5606 5605 5604 5602 5602
5599 5600 5599 5592 5589 5586 5587 5587 5586 5585 5589 5590 5590 5591 5592 5592 5593 5593 5593 5593 5595 5597 5599 5600 5601 5603 5604 5604 5605 5606 5606 5606 5606 5606 5604 5601 5598 5598
5593 5591 5588 5585 5583 5584 5582 5582 5582 5584 5586 5586 5587 5588 5589 5589 5588 5588 5588 5588 5589 5591 5593 5594 5595 5597 5598 5599 5601 5601 5600 5601 5601 5601 5600 5599 5598 5597
5586 5585 5581 5580 5580 5580 5580 5580 5581 5582 5583 5583 5584 5584 5584 5584 5584 5585 5585 5585 5585 5587 5589 5589 5589 5590 5591 5593 5594 5595 5595 5595 5595 5595 5595 5594 5595 5595
5579 5581 5583 5584 5583 5582 5582 5581 5580 5580 5578 5579 5579 5579 5580 5581 5582 5583 5582 5582 5582 5583 5584 5585 5585 5585 5585 5586 5587 5588 5589 5589 5589 5589 5588 5589 5591 5591
5572 5578 5581 5581 5581 5580 5580 5580 5579 5578 5577 5576 5575 5576 5577 5578 5579 5579 5579 5579 5579 5579 5580 5581 5580 5579 5579 5581 5580 5582 5584 5584 5584 5583 5583 5584 5585 5586
5570 5576 5577 5577 5577 5577 5577 5577 5577 5576 5575 5575 5574 5574 5574 5574 5575 5575 5575 5575 5575 5576 5576 5576 5576 5577 5577 5579 5580 5577 5579 5579 5578 5578 5578 5579 5579 5580
5573 5574 5575 5575 5574 5574 5574 5574 5573 5573 5572 5571 5571 5571 5570 5570 5571 5571 5571 5570 5571 5571 5571 5572 5573 5574 5575 5576 5575 5573 5570 5572 5572 5572 5572 5573 5573 5571
5573 5573 5572 5572 5571 5570 5570 5569 5569 5569 5569 5568 5568 5567 5567 5567 5567 5567 5567 5565 5565 5566 5567 5569 5570 5569 5569 5568 5568 5568 5567 5565 5566 5565 5566 5567 5568 5568
5571 5570 5570 5569 5567 5567 5567 5566 5565 5565 5565 5564 5564 5563 5563 5562 5563 5563 5563 5563 5563 5563 5563 5564 5564 5564 5565 5565 5564 5564 5563 5561 5559 5557 5557 5559 5563 5564
5567 5566 5566 5565 5565 5564 5564 5563 5562 5562 5561 5561 5560 5559 5559 5558 5559 5559 5559 5559 5558 5559 5559 5559 5559 5560 5561 5561 5560 5559 5558 5557 5557 5555 5554 5554 5554 5553